Date String (YYYY-MM-DD hh:mm:ss) UTC,Instrument flags,absolute air pressure of the measurement (hPa),sample flow rate (lpm),inlet stack bypass flow (lpm),air temperature of the measurement (°C),ambient temperature measured by the external sensor (°C),aerosol sample conditioner tube jacket temperature (°C),OPC LED temperature (°C),internal box temperature (°C),relative humidity of the measurement (%),span deviation,mass concentration of particles derived from Lorenz-Mie calculation of OPC scattering (μg/m³),mass concentration of particles derived from Lorenz-Mie calculation of OPC scattering (μg/m³),mass concentration of particles derived from Lorenz-Mie calculation of OPC scattering (μg/m³)
DateTimeUTC,F1_M11,P_M11,Q1_M11,Q2_M11,T1_M11,T2_M11,T3_M11,T4_M11,T5_M11,U1_M11,ZSPAN_M11,X0_M11,X2_M11,X1_M11
2024-05-01 10:00:00,SystemResetWarning,0825.0,5.00,000.00,025.1,024.4,000.0,033.7,027.0,013.0,0000.0,0010.09,0003.45,0002.08
2024-05-01 10:01:00,SystemResetWarning,0825.0,5.00,000.00,025.1,024.4,000.0,033.7,027.0,013.0,0000.0,0010.11,0003.41,0002.07
2024-05-01 10:02:00,SystemResetWarning,0824.9,5.00,000.00,025.1,024.4,000.0,033.7,027.0,013.0,0000.0,0009.63,0003.37,0002.06
2024-05-01 10:03:00,SystemResetWarning,0824.9,5.00,000.00,025.1,024.4,000.0,033.7,027.0,013.0,0000.0,0009.97,0003.40,0002.05
2024-05-01 10:04:00,SystemResetWarning,0824.9,5.00,000.00,025.1,024.4,000.0,033.7,027.0,013.0,0000.0,0010.69,0003.41,0002.04
2024-05-01 10:05:00,SystemResetWarning,0824.9,4.99,000.00,025.1,024.4,000.0,033.7,027.0,013.1,0000.0,0010.81,0003.39,0002.02
2024-05-01 10:06:00,SystemResetWarning,0825.0,5.00,000.00,025.1,024.4,000.0,033.7,027.0,013.1,0000.0,0011.33,0003.36,0002.01
2024-05-01 10:07:00,SystemResetWarning,0825.0,5.00,000.00,025.1,024.4,000.0,033.7,027.0,013.2,0000.0,0011.50,0003.33,0002.03
2024-05-01 10:08:00,SystemResetWarning,0825.1,5.02,000.00,025.1,024.4,000.0,033.7,027.0,013.1,0000.0,0011.74,0003.30,0002.04
2024-05-01 10:09:00,SystemResetWarning,0825.1,4.98,000.00,025.1,024.3,000.0,033.7,027.0,013.1,0000.0,0011.78,0003.28,0002.04
2024-05-01 10:10:00,SystemResetWarning,0825.1,4.99,000.00,025.1,024.3,000.0,033.7,027.0,013.1,0000.0,0011.72,0003.27,0002.03
2024-05-01 10:11:00,SystemResetWarning,0825.1,5.00,000.00,025.1,024.3,000.0,033.7,027.0,013.0,0000.0,0011.51,0003.25,0002.02
2024-05-01 10:12:00,SystemResetWarning,0825.0,5.01,000.00,025.1,024.3,000.0,033.7,026.9,012.9,0000.0,0011.42,0003.26,0002.01
2024-05-01 10:13:00,SystemResetWarning,0825.0,5.01,000.00,025.1,024.3,000.0,033.7,026.9,012.8,0000.0,0011.43,0003.29,0002.02
2024-05-01 10:14:00,SystemResetWarning,0825.0,5.00,000.00,025.1,024.3,000.0,033.7,026.9,012.7,0000.0,0010.71,0003.28,0002.03
2024-05-01 10:15:00,SystemResetWarning,0825.0,4.99,000.00,025.1,024.3,000.0,033.7,026.9,012.7,0000.0,0010.21,0003.28,0002.03
2024-05-01 10:16:00,SystemResetWarning,0825.0,5.00,000.00,025.1,024.3,000.0,033.7,026.9,012.7,0000.0,0010.43,0003.30,0002.03
2024-05-01 10:17:00,SystemResetWarning,0825.0,5.01,000.00,025.1,024.3,000.0,033.7,026.9,012.8,0000.0,0010.35,0003.31,0002.06
2024-05-01 10:18:00,SystemResetWarning,0824.9,5.01,000.00,025.1,024.3,000.0,033.6,026.9,013.4,0000.0,0009.17,0003.32,0002.05
2024-05-01 10:19:00,SystemResetWarning,0824.9,4.98,000.00,025.1,024.3,000.0,033.6,026.9,013.7,0000.0,0009.25,0003.36,0002.04
2024-05-01 10:20:00,SystemResetWarning,0824.9,4.99,000.00,025.1,024.3,000.0,033.6,026.9,013.6,0000.0,0009.26,0003.35,0002.03
2024-05-01 10:21:00,SystemResetWarning,0825.0,5.01,000.00,025.1,024.3,000.0,033.6,026.9,013.6,0000.0,0009.95,0003.42,0002.05
2024-05-01 10:22:00,SystemResetWarning,0824.9,5.01,000.00,025.1,024.3,000.0,033.6,026.9,013.4,0000.0,0010.34,0003.47,0002.07
2024-05-01 10:23:00,SystemResetWarning,0825.0,5.00,000.00,025.0,024.3,000.0,033.6,026.9,013.3,0000.0,0010.72,0003.50,0002.08
2024-05-01 10:24:00,SystemResetWarning,0825.0,5.00,000.00,025.0,024.2,000.0,033.6,026.9,013.3,0000.0,0011.39,0003.53,0002.08
2024-05-01 10:25:00,SystemResetWarning,0824.9,4.99,000.00,025.0,024.2,000.0,033.6,026.9,013.5,0000.0,0011.74,0003.57,0002.07
2024-05-01 10:26:00,SystemResetWarning,0825.0,5.00,000.00,025.0,024.2,000.0,033.6,026.8,013.4,0000.0,0012.31,0003.61,0002.07
2024-05-01 10:27:00,SystemResetWarning,0825.0,5.01,000.00,025.0,024.2,000.0,033.6,026.8,013.3,0000.0,0012.06,0003.59,0002.07
2024-05-01 10:28:00,SystemResetWarning,0825.0,5.01,000.00,025.0,024.2,000.0,033.6,026.8,012.8,0000.0,0011.98,0003.60,0002.06
2024-05-01 10:29:00,SystemResetWarning,0825.1,5.00,000.00,025.0,024.2,000.0,033.6,026.8,012.8,0000.0,0012.73,0003.62,0002.08
2024-05-01 10:30:00,SystemResetWarning,0825.1,4.98,000.00,025.0,024.2,000.0,033.6,026.8,013.3,0000.0,0013.33,0003.64,0002.09
2024-05-01 10:31:00,SystemResetWarning,0825.1,5.01,000.00,025.0,024.2,000.0,033.6,026.8,013.4,0000.0,0014.77,0003.69,0002.09
2024-05-01 10:32:00,SystemResetWarning,0825.1,5.01,000.00,025.0,024.2,000.0,033.6,026.8,014.0,0000.0,0015.68,0003.65,0002.07
2024-05-01 10:33:00,SystemResetWarning,0825.0,5.01,000.00,025.0,024.2,000.0,033.5,026.8,014.2,0000.0,0015.70,0003.65,0002.05
2024-05-01 10:34:00,SystemResetWarning,0825.0,5.00,000.00,025.0,024.2,000.0,033.5,026.8,014.3,0000.0,0015.31,0003.62,0002.03
2024-05-01 10:35:00,SystemResetWarning,0824.9,4.98,000.00,024.9,024.2,000.0,033.5,026.8,014.4,0000.0,0014.54,0003.57,0002.02
2024-05-01 10:36:00,SystemResetWarning,0824.9,5.00,000.00,024.9,024.2,000.0,033.5,026.8,014.0,0000.0,0013.99,0003.50,0002.02
2024-05-01 10:37:00,SystemResetWarning,0824.9,5.01,000.00,024.9,024.2,000.0,033.5,026.8,013.9,0000.0,0013.25,0003.49,0002.03
2024-05-01 10:38:00,SystemResetWarning,0824.9,5.01,000.00,024.9,024.2,000.0,033.5,026.8,013.8,0000.0,0013.23,0003.53,0002.04
2024-05-01 10:39:00,SystemResetWarning,0824.8,5.01,000.00,024.9,024.2,000.0,033.5,026.8,013.7,0000.0,0013.84,0003.57,0002.06
2024-05-01 10:40:00,SystemResetWarning,0824.8,4.99,000.00,024.9,024.2,000.0,033.5,026.8,013.5,0000.0,0013.34,0003.56,0002.04
2024-05-01 10:41:00,SystemResetWarning,0824.7,4.99,000.00,024.9,024.2,000.0,033.5,026.8,013.3,0000.0,0012.38,0003.52,0002.03
2024-05-01 10:42:00,SystemResetWarning,0824.7,4.99,000.00,024.9,024.2,000.0,033.5,026.8,013.3,0000.0,0011.48,0003.49,0002.03
2024-05-01 10:43:00,SystemResetWarning,0824.8,5.01,000.00,024.9,024.2,000.0,033.5,026.8,013.5,0000.0,0010.34,0003.50,0002.03
2024-05-01 10:44:00,SystemResetWarning,0824.7,5.02,000.00,024.9,024.2,000.0,033.5,026.8,013.6,0000.0,0010.23,0003.47,0002.03
2024-05-01 10:45:00,SystemResetWarning,0824.8,4.99,000.00,024.9,024.2,000.0,033.5,026.8,013.9,0000.0,0011.23,0003.52,0002.06
2024-05-01 10:46:00,SystemResetWarning,0824.7,5.00,000.00,024.9,024.2,000.0,033.5,026.8,014.0,0000.0,0012.64,0003.58,0002.10
2024-05-01 10:47:00,SystemResetWarning,0824.7,5.00,000.00,024.9,024.2,000.0,033.5,026.8,014.1,0000.0,0014.36,0003.67,0002.12
2024-05-01 10:48:00,SystemResetWarning,0824.7,5.00,000.00,024.9,024.2,000.0,033.5,026.8,014.1,0000.0,0015.54,0003.69,0002.13
2024-05-01 10:49:00,SystemResetWarning,0824.8,5.01,000.00,024.9,024.2,000.0,033.5,026.8,014.1,0000.0,0015.55,0003.71,0002.14
2024-05-01 10:50:00,SystemResetWarning,0824.8,4.99,000.00,024.9,024.2,000.0,033.5,026.8,014.2,0000.0,0014.92,0003.74,0002.16
2024-05-01 10:51:00,SystemResetWarning,0824.8,4.99,000.00,024.9,024.2,000.0,033.5,026.8,014.2,0000.0,0014.84,0003.82,0002.20
2024-05-01 10:52:00,SystemResetWarning,0824.8,4.99,000.00,024.9,024.2,000.0,033.5,026.8,014.2,0000.0,0015.21,0003.92,0002.23
2024-05-01 10:53:00,SystemResetWarning,0824.8,5.00,000.00,024.9,024.2,000.0,033.5,026.8,014.1,0000.0,0015.14,0004.00,0002.25
2024-05-01 10:54:00,SystemResetWarning,0824.8,5.01,000.00,024.9,024.1,000.0,033.5,026.8,014.1,0000.0,0015.49,0004.02,0002.28
2024-05-01 10:55:00,SystemResetWarning,0824.9,5.01,000.00,024.9,024.1,000.0,033.5,026.8,014.2,0000.0,0015.23,0004.00,0002.29
2024-05-01 10:56:00,SystemResetWarning,0824.9,4.99,000.00,024.9,024.1,000.0,033.5,026.8,014.5,0000.0,0015.66,0003.98,0002.29
2024-05-01 10:57:00,SystemResetWarning,0824.9,4.99,000.00,024.9,024.1,000.0,033.5,026.8,014.4,0000.0,0014.84,0003.95,0002.27
2024-05-01 10:58:00,SystemResetWarning,0824.9,5.00,000.00,024.9,024.1,000.0,033.5,026.8,014.4,0000.0,0013.66,0003.94,0002.28
2024-05-01 10:59:00,SystemResetWarning,0824.9,5.01,000.00,024.9,024.1,000.0,033.5,026.8,014.4,0000.0,0012.59,0003.91,0002.28
